Wind_Speed
10 9 10 11 9 6 4 3 1 1 1 2 2 2 2 1 1 1 1 2 1 3 6 7 8 9 10 12 14 17 19 21 23 22 22 22 24 24 25 25 24 26 30 34 40
9 8 9 10 8 5 2 1 2 2 3 3 3 3 3 3 2 2 1 1 4 6 7 8 10 9 11 15 17 18 20 22 24 25 25 23 24 23 23 22 24 28 33 38 43
11 8 9 9 7 5 1 2 3 4 4 4 4 4 3 4 3 2 2 5 6 6 7 8 9 10 13 16 19 20 22 23 23 24 24 24 23 21 21 24 28 32 37 42 48
12 10 9 8 7 5 3 3 4 4 5 4 4 4 4 3 3 4 5 6 5 6 7 8 10 12 14 16 19 20 22 24 25 25 24 21 22 24 25 27 30 35 41 46 50
12 12 9 8 8 5 4 4 5 6 6 5 4 4 4 4 5 7 7 6 4 5 6 9 10 12 14 16 19 20 22 23 24 24 21 21 24 26 28 30 34 39 44 49 53
14 13 11 9 9 7 6 7 7 8 8 7 5 4 5 7 8 8 7 4 4 5 7 9 10 12 14 17 20 20 22 23 24 23 21 22 24 28 30 32 36 41 47 53 55
20 13 14 12 9 9 8 9 9 9 9 8 7 6 6 8 10 9 6 3 2 4 7 9 11 14 16 19 20 20 22 24 24 23 21 22 27 30 30 34 40 46 50 55 54
26 19 15 15 11 11 10 9 11 10 10 9 8 7 8 12 11 9 5 2 2 5 8 10 13 15 17 19 20 22 20 22 24 23 24 25 27 30 32 38 43 48 53 55 56
28 25 16 16 15 12 12 10 12 12 11 10 8 9 11 13 10 8 5 1 2 6 9 12 14 16 18 20 22 22 23 22 23 24 25 27 27 31 34 40 45 50 56 56 58
28 27 21 18 18 14 14 12 12 13 11 11 10 12 15 13 10 6 3 2 5 8 10 13 15 17 19 20 23 26 27 26 25 25 25 28 27 32 36 42 48 54 56 57 57
29 26 24 19 19 17 15 14 12 13 13 12 12 15 16 13 10 6 3 3 6 9 12 13 14 16 20 24 27 28 27 26 24 25 28 29 27 32 37 45 50 55 55 58 57
26 27 25 21 21 20 17 16 15 15 14 14 15 17 17 14 10 6 3 4 7 10 11 13 15 18 21 25 26 27 27 26 25 25 29 30 30 33 40 46 52 54 56 61 50
26 27 26 23 22 22 20 19 17 17 17 17 17 20 18 14 10 7 4 5 8 10 10 13 15 18 22 24 25 25 25 25 26 25 27 30 30 35 40 48 54 56 59 62 31
26 27 27 25 24 24 23 21 20 19 18 18 20 20 18 15 11 7 5 6 8 10 11 12 16 19 22 23 25 25 27 26 26 26 27 31 33 35 42 49 55 57 61 55 23
28 26 27 26 25 25 25 24 22 20 20 21 22 22 19 15 12 8 6 7 9 10 11 13 16 19 21 23 25 27 28 28 25 24 28 32 33 37 44 52 55 59 63 46 21
29 26 28 28 26 28 27 26 24 22 22 21 25 24 20 16 13 9 7 8 10 10 10 13 16 17 20 23 25 28 29 28 26 26 29 32 35 40 47 52 54 59 60 36 22
32 30 26 28 29 29 29 28 27 24 23 23 26 25 22 18 14 11 9 9 10 10 10 12 13 15 19 23 26 29 30 29 27 28 30 33 36 41 46 51 54 57 58 28 24
33 31 30 29 32 31 32 31 29 27 27 27 27 28 23 20 17 13 10 10 10 9 6 10 11 14 19 22 26 29 32 33 31 30 30 32 35 39 46 52 53 54 57 24 26
33 34 32 33 34 34 34 34 29 31 28 29 29 27 25 21 18 15 12 11 11 9 7 8 8 13 18 22 27 30 32 33 30 29 31 31 33 39 45 50 51 52 54 25 28
34 38 34 34 35 36 37 34 32 32 31 29 30 29 26 25 20 16 13 13 12 10 7 7 7 13 17 21 25 29 33 33 32 31 33 31 34 38 44 49 50 51 53 26 30
36 37 39 42 32 36 38 32 34 36 35 31 33 28 28 25 22 19 15 14 13 11 7 5 6 12 16 20 25 28 31 33 32 30 32 33 32 36 42 47 49 51 51 32 31
37 39 41 44 48 40 35 33 39 36 35 32 34 33 28 27 25 21 16 17 15 12 8 6 5 10 14 18 23 27 29 32 33 30 30 31 30 34 40 44 49 53 50 41 30
36 39 42 44 43 44 38 35 41 39 35 35 37 36 32 27 27 23 20 18 16 14 11 8 5 8 11 16 21 26 29 31 33 31 29 30 30 33 37 41 45 51 50 48 31
37 39 41 44 46 48 44 41 42 41 36 37 38 38 36 30 29 25 22 20 18 15 14 11 8 6 8 13 19 25 29 30 33 32 28 29 27 29 34 40 44 48 52 50 38
37 39 40 44 47 51 49 50 44 42 40 38 41 40 39 36 32 28 24 23 20 17 16 14 12 8 7 11 17 22 28 30 31 33 29 28 27 28 34 37 42 47 49 50 46
38 38 41 43 46 50 51 50 45 43 43 39 42 41 44 41 34 32 27 25 22 20 18 17 14 13 11 11 15 20 25 29 30 33 32 28 27 25 29 33 39 43 46 50 49
36 38 39 43 46 49 48 49 43 42 43 43 42 47 45 42 37 35 31 28 23 22 20 18 17 15 15 14 15 18 22 25 29 30 32 29 27 23 25 30 36 39 42 47 51
Wind_Direction
314 315 323 346 355 1 359 347 310 184 150 129 151 172 182 157 212 163 128 99 20 66 72 61 48 35 19 6 356 350 343 339 336 336 334 330 325 326 325 323 323 323 324 321 321
306 308 314 338 350 355 358 333 278 225 194 192 185 188 189 148 189 134 94 66 99 87 72 57 44 26 11 4 358 355 347 344 341 340 339 336 331 330 327 326 326 326 323 322 320
297 301 302 324 341 337 311 225 254 240 220 199 192 188 164 148 144 146 138 120 106 83 65 53 36 22 9 6 1 356 351 348 345 341 339 337 332 334 332 327 327 327 325 322 320
294 291 290 310 323 316 285 225 237 241 232 212 189 178 169 171 166 137 133 119 103 75 60 44 28 14 9 3 0 357 354 352 348 345 342 338 334 334 332 328 326 325 325 323 325
291 286 276 288 302 289 274 236 230 235 231 225 201 189 181 178 161 142 136 129 105 71 50 34 19 7 4 360 358 355 353 352 350 345 342 337 332 336 334 330 329 328 324 326 330
277 282 273 270 286 275 268 230 227 228 228 223 208 195 173 165 155 149 150 134 88 45 27 15 6 360 358 355 355 354 350 352 349 344 340 337 334 336 333 331 329 325 325 330 332
268 273 273 260 268 271 254 237 224 232 224 220 211 204 182 167 159 161 161 144 67 20 8 353 350 351 349 351 351 352 350 350 347 341 342 339 334 336 334 332 328 326 329 334 334
260 261 264 255 252 265 254 248 225 224 228 224 215 204 186 173 169 168 166 171 5 353 343 340 343 343 342 347 347 351 351 347 342 342 341 340 337 335 336 330 329 331 335 336 333
254 256 253 254 248 252 253 248 232 223 228 228 218 198 188 179 177 175 181 200 329 330 333 335 339 337 339 343 348 344 342 346 344 344 341 342 341 336 334 332 333 337 339 337 337
250 249 246 247 244 240 252 249 236 228 226 228 207 197 187 186 185 184 198 290 322 327 332 337 340 337 341 338 343 345 345 350 347 345 343 344 342 333 333 333 337 341 338 337 338
250 246 242 240 239 239 242 244 232 227 219 215 205 196 191 191 191 196 228 295 323 331 332 337 337 338 340 346 347 346 348 349 343 343 345 344 342 334 334 338 341 343 337 335 336
257 247 240 236 233 236 234 234 232 230 218 211 204 198 193 195 198 208 244 302 329 333 333 331 338 344 347 348 348 348 348 345 345 344 344 343 345 337 339 341 344 342 337 340 339
263 252 240 232 232 233 233 231 230 225 221 212 205 197 196 197 203 213 249 302 326 331 333 336 342 346 351 351 352 351 348 344 346 347 345 342 347 343 343 345 346 343 341 344 348
252 254 243 234 230 228 232 230 229 222 223 215 204 200 199 200 207 216 245 295 324 331 333 341 348 351 355 358 357 355 353 347 348 348 346 344 349 347 347 348 350 346 345 348 352
251 250 247 236 231 226 232 230 225 223 221 217 202 199 200 202 212 222 252 294 316 327 332 344 353 357 3 3 1 359 354 351 353 348 348 350 347 351 352 352 352 347 350 349 353
247 244 248 240 233 227 227 233 228 221 219 216 205 204 203 206 212 227 254 287 308 318 333 349 354 5 9 9 7 5 358 355 350 352 351 350 353 356 355 354 354 350 353 352 354
242 242 244 239 238 228 226 228 229 220 217 209 207 206 208 211 215 229 251 280 298 311 334 348 360 12 15 12 9 8 1 356 359 359 356 355 358 356 356 357 357 350 353 355 353
243 241 235 244 239 233 226 227 225 221 212 209 208 209 211 216 219 228 250 272 287 293 327 344 3 11 14 12 9 9 5 359 357 360 359 358 357 357 0 2 359 353 353 356 354
245 236 231 240 238 239 228 227 227 226 218 210 210 211 213 218 221 228 245 268 277 286 318 347 10 9 8 9 7 6 5 1 359 1 360 1 359 3 4 2 0 358 356 355 351
243 236 230 234 235 239 233 226 227 229 222 209 213 215 215 220 224 229 244 261 268 275 300 331 3 5 2 7 8 5 4 2 358 0 1 7 2 4 6 4 5 2 359 355 352
244 235 231 228 233 236 240 229 230 228 225 214 214 217 216 220 221 228 240 256 259 264 276 307 347 356 1 7 6 5 5 4 360 358 1 6 5 5 9 8 12 10 3 358 357
245 237 231 229 232 238 247 239 232 228 227 220 216 215 221 217 222 227 235 247 252 255 261 277 333 353 359 6 4 3 4 6 360 358 1 5 7 8 11 11 18 18 12 6 359
245 241 233 232 233 234 240 243 235 228 228 223 221 217 222 219 222 224 234 243 246 247 251 264 285 344 355 2 4 3 2 5 5 358 358 4 6 8 11 13 21 23 22 16 6
245 243 237 233 232 232 234 240 240 232 227 224 225 219 220 220 221 222 231 240 244 243 246 260 263 317 344 354 0 1 360 3 5 2 0 1 7 8 12 16 22 23 27 24 14
244 244 239 233 232 231 236 236 238 235 229 226 226 223 221 223 222 221 228 237 241 240 244 252 260 280 306 335 345 354 355 358 5 6 0 1 5 9 11 15 20 25 26 29 24
246 243 239 233 230 233 239 235 231 232 231 223 227 226 222 221 220 223 226 235 238 236 239 245 258 268 284 308 328 343 351 355 1 7 3 3 3 7 11 13 17 22 27 29 30
251 243 241 234 229 231 233 229 231 229 231 224 224 227 225 222 219 224 224 231 237 239 239 244 252 264 274 289 310 330 342 351 355 3 5 2 4 2 8 12 16 22 27 30 32
Height
5885 5884 5884 5883 5881 5880 5880 5880 5879 5878 5878 5878 5878 5878 5878 5879 5878 5878 5877 5877 5876 5876 5876 5876 5876 5876 5875 5874 5872 5869 5867 5865 5861 5860 5858 5855 5851 5848 5844 5840 5836 5832 5828 5823 5817
5883 5883 5883 5882 5881 5880 5879 5879 5879 5879 5878 5877 5877 5878 5878 5879 5878 5878 5877 5877 5876 5876 5877 5877 5876 5876 5875 5872 5871 5868 5865 5862 5859 5855 5853 5851 5847 5844 5841 5837 5834 5829 5824 5818 5812
5883 5882 5881 5881 5880 5879 5878 5878 5878 5879 5878 5877 5876 5877 5878 5878 5879 5878 5877 5877 5877 5877 5877 5877 5876 5875 5873 5871 5869 5867 5864 5861 5858 5854 5851 5847 5844 5841 5838 5834 5830 5825 5819 5812 5805
5881 5880 5880 5880 5879 5878 5877 5877 5877 5877 5877 5876 5876 5877 5877 5877 5878 5877 5877 5877 5878 5877 5877 5877 5876 5875 5873 5871 5869 5866 5863 5859 5856 5852 5848 5844 5841 5838 5835 5831 5826 5820 5813 5805 5799
5878 5878 5878 5878 5878 5877 5876 5875 5875 5876 5876 5876 5876 5876 5876 5877 5877 5877 5877 5878 5878 5877 5877 5876 5876 5875 5872 5870 5868 5865 5862 5858 5854 5850 5846 5842 5838 5835 5830 5825 5820 5814 5807 5800 5792
5874 5875 5876 5876 5876 5875 5874 5873 5874 5874 5875 5875 5875 5876 5875 5876 5876 5877 5877 5878 5878 5877 5877 5876 5875 5873 5872 5870 5867 5863 5859 5856 5852 5849 5845 5841 5836 5832 5827 5821 5816 5809 5801 5792 5783
5871 5872 5873 5873 5873 5874 5873 5872 5871 5873 5873 5874 5875 5875 5876 5876 5876 5877 5877 5878 5878 5877 5877 5875 5874 5872 5870 5868 5865 5861 5858 5853 5850 5846 5843 5839 5833 5829 5824 5817 5810 5802 5793 5784 5774
5867 5867 5869 5870 5870 5872 5871 5870 5870 5870 5872 5873 5873 5874 5875 5875 5876 5877 5877 5877 5877 5877 5876 5875 5873 5871 5869 5866 5862 5860 5858 5853 5847 5844 5840 5837 5831 5825 5820 5813 5805 5796 5786 5775 5764
5862 5863 5864 5867 5868 5868 5869 5868 5868 5868 5869 5871 5873 5873 5875 5875 5876 5877 5877 5877 5877 5876 5875 5874 5872 5870 5867 5864 5861 5858 5856 5852 5847 5842 5837 5833 5828 5821 5815 5808 5800 5790 5779 5767 5755
5857 5858 5860 5862 5864 5864 5866 5867 5866 5867 5868 5869 5871 5874 5874 5875 5875 5876 5877 5876 5876 5875 5874 5873 5870 5868 5865 5864 5860 5855 5850 5846 5842 5839 5834 5830 5825 5818 5812 5803 5794 5783 5770 5759 5749
5852 5853 5856 5857 5860 5862 5863 5865 5866 5866 5865 5867 5870 5871 5872 5874 5875 5876 5876 5876 5875 5874 5872 5871 5869 5867 5864 5859 5855 5850 5846 5842 5839 5835 5831 5827 5822 5815 5807 5799 5788 5777 5765 5754 5740
5846 5848 5851 5853 5854 5858 5859 5860 5862 5863 5864 5864 5867 5869 5871 5873 5874 5874 5875 5876 5874 5873 5871 5870 5867 5865 5861 5857 5853 5849 5844 5841 5837 5832 5828 5823 5819 5811 5803 5794 5785 5774 5760 5748 5733
5841 5844 5846 5848 5850 5853 5855 5856 5858 5859 5861 5862 5865 5867 5869 5872 5872 5873 5874 5874 5873 5872 5870 5868 5866 5863 5860 5856 5852 5847 5844 5839 5835 5830 5826 5821 5816 5808 5801 5791 5780 5766 5755 5741 5729
5836 5839 5841 5843 5847 5848 5849 5851 5853 5856 5859 5861 5862 5866 5868 5869 5871 5872 5872 5873 5871 5870 5868 5867 5865 5862 5858 5854 5851 5847 5842 5837 5832 5828 5823 5817 5813 5805 5797 5787 5773 5760 5749 5733 5727
5830 5832 5836 5839 5840 5843 5846 5847 5849 5853 5856 5859 5860 5862 5865 5867 5869 5870 5870 5870 5869 5868 5867 5866 5863 5860 5857 5854 5850 5846 5840 5836 5831 5827 5821 5814 5809 5802 5792 5781 5769 5756 5740 5730 5725
5823 5826 5830 5834 5836 5837 5840 5843 5847 5850 5851 5855 5857 5859 5862 5864 5866 5867 5868 5868 5867 5866 5865 5863 5862 5859 5856 5853 5849 5845 5840 5834 5830 5824 5819 5813 5806 5798 5788 5779 5766 5750 5740 5730 5724
5816 5820 5824 5828 5831 5831 5834 5838 5843 5844 5848 5852 5854 5857 5859 5861 5863 5864 5865 5866 5865 5865 5863 5861 5860 5858 5855 5851 5847 5843 5838 5834 5829 5822 5816 5809 5803 5795 5787 5777 5763 5749 5740 5728 5724
5809 5812 5816 5821 5824 5826 5828 5833 5838 5839 5841 5846 5850 5853 5857 5858 5860 5861 5863 5862 5863 5862 5862 5861 5858 5856 5853 5850 5846 5842 5836 5829 5823 5819 5814 5808 5802 5796 5786 5775 5763 5754 5739 5728 5723
5801 5805 5809 5813 5817 5820 5823 5826 5833 5834 5837 5841 5846 5850 5852 5854 5857 5858 5859 5859 5860 5860 5860 5858 5857 5855 5852 5849 5845 5840 5835 5829 5824 5819 5813 5808 5802 5794 5785 5775 5764 5752 5737 5728 5723
5792 5797 5801 5805 5808 5813 5816 5822 5825 5829 5832 5836 5841 5845 5848 5850 5853 5854 5856 5857 5857 5857 5857 5857 5855 5853 5851 5848 5844 5839 5834 5828 5821 5816 5810 5806 5799 5791 5784 5774 5763 5750 5737 5728 5722
5783 5787 5791 5795 5801 5806 5810 5818 5819 5822 5827 5831 5835 5839 5843 5845 5848 5850 5852 5853 5853 5854 5854 5854 5853 5853 5850 5846 5842 5838 5833 5827 5822 5816 5810 5804 5799 5792 5784 5775 5763 5751 5740 5728 5723
5774 5778 5782 5786 5794 5799 5806 5810 5810 5816 5822 5827 5828 5834 5837 5840 5843 5845 5848 5848 5849 5850 5851 5852 5851 5849 5848 5845 5842 5837 5832 5827 5821 5816 5810 5804 5800 5792 5785 5775 5765 5753 5741 5729 5723
5765 5768 5773 5778 5783 5790 5797 5801 5803 5808 5815 5821 5822 5827 5831 5835 5838 5841 5842 5844 5845 5846 5848 5848 5848 5847 5846 5845 5840 5836 5831 5826 5821 5814 5809 5804 5799 5792 5786 5777 5767 5756 5744 5732 5723
5756 5759 5763 5770 5774 5780 5786 5792 5795 5801 5806 5811 5816 5820 5825 5828 5832 5835 5837 5839 5840 5842 5843 5844 5845 5845 5844 5842 5839 5835 5830 5825 5820 5814 5809 5804 5799 5793 5786 5778 5768 5758 5746 5734 5724
5745 5749 5754 5759 5765 5770 5774 5781 5787 5794 5797 5803 5809 5814 5816 5821 5825 5829 5832 5833 5835 5837 5839 5840 5841 5841 5840 5839 5837 5833 5829 5824 5820 5814 5808 5803 5797 5791 5784 5777 5770 5761 5750 5738 5728
5735 5738 5744 5749 5755 5759 5763 5772 5778 5785 5789 5794 5800 5806 5806 5813 5819 5823 5826 5827 5829 5832 5833 5835 5836 5837 5836 5835 5834 5831 5827 5823 5819 5814 5807 5802 5796 5791 5786 5780 5772 5763 5753 5743 5732
5726 5728 5732 5738 5743 5749 5755 5763 5769 5773 5779 5785 5791 5794 5800 5807 5812 5815 5818 5821 5824 5826 5828 5830 5831 5832 5832 5832 5831 5830 5826 5822 5818 5814 5808 5801 5796 5791 5786 5780 5773 5765 5757 5748 5737